Time,TemperatureF,DewpointF,PressureIn,WindDirection,WindDirectionDegrees,WindSpeedMPH,WindSpeedGustMPH,Humidity,HourlyPrecipIn,Conditions,Clouds,dailyrainin,SoftwareType,DateUTC
2013-05-02 00:02:00,40.0,35.0,30.19,NE,35,8.0,24.0,82,0.00,,,0.02,,2013-05-02 05:02:00,
2013-05-02 00:12:00,40.0,35.0,30.19,North,7,14.0,24.0,83,0.02,,,0.04,,2013-05-02 05:12:00,
2013-05-02 00:22:00,40.0,35.0,30.19,North,7,14.0,24.0,83,0.02,,,0.04,,2013-05-02 05:22:00,
2013-05-02 00:32:00,40.0,36.0,30.24,NNW,328,8.0,12.0,84,0.02,,,0.04,,2013-05-02 05:32:00,
2013-05-02 00:42:00,40.0,36.0,30.24,NNW,328,8.0,12.0,84,0.02,,,0.04,,2013-05-02 05:42:00,
2013-05-02 00:52:00,40.0,35.0,30.22,North,352,11.0,19.0,83,0.02,,,0.04,,2013-05-02 05:52:00,
2013-05-02 01:01:00,41.0,36.0,30.22,North,353,7.0,25.0,83,0.02,,,0.04,,2013-05-02 06:01:00,
2013-05-02 01:12:00,41.0,36.0,30.22,North,353,7.0,25.0,83,0.02,,,0.04,,2013-05-02 06:12:00,
2013-05-02 01:21:00,41.0,36.0,30.22,North,357,18.0,22.0,83,0.00,,,0.04,,2013-05-02 06:21:00,
2013-05-02 01:31:00,40.0,35.0,30.22,North,9,15.0,19.0,83,0.00,,,0.04,,2013-05-02 06:31:00,
2013-05-02 01:42:00,40.0,35.0,30.22,North,9,15.0,19.0,83,0.00,,,0.04,,2013-05-02 06:42:00,
2013-05-02 01:52:00,41.0,36.0,30.21,North,4,14.0,22.0,83,0.00,,,0.04,,2013-05-02 06:52:00,
2013-05-02 02:02:00,41.0,36.0,30.22,North,358,6.0,22.0,83,0.00,,,0.04,,2013-05-02 07:02:00,
2013-05-02 02:11:00,41.0,36.0,30.22,North,358,6.0,22.0,83,0.00,,,0.04,,2013-05-02 07:11:00,
2013-05-02 02:21:00,41.0,36.0,30.23,NNE,24,13.0,16.0,83,0.00,,,0.04,,2013-05-02 07:21:00,
2013-05-02 02:32:00,41.0,36.0,30.23,North,358,9.0,23.0,83,0.01,,,0.05,,2013-05-02 07:32:00,
2013-05-02 02:41:00,41.0,37.0,30.24,NNW,338,6.0,19.0,84,0.01,,,0.05,,2013-05-02 07:41:00,
2013-05-02 02:52:00,41.0,37.0,30.24,NNW,338,6.0,19.0,84,0.01,,,0.05,,2013-05-02 07:52:00,
2013-05-02 03:02:00,40.0,36.0,30.24,North,358,10.0,11.0,85,0.01,,,0.05,,2013-05-02 08:02:00,
2013-05-02 03:11:00,40.0,36.0,30.25,North,8,8.0,19.0,85,0.01,,,0.05,,2013-05-02 08:11:00,
2013-05-02 03:22:00,40.0,36.0,30.25,North,8,8.0,19.0,85,0.01,,,0.05,,2013-05-02 08:22:00,
2013-05-02 03:32:00,40.0,36.0,30.24,North,0,6.0,21.0,85,0.01,,,0.06,,2013-05-02 08:32:00,
2013-05-02 03:42:00,40.0,36.0,30.24,North,0,6.0,21.0,85,0.01,,,0.06,,2013-05-02 08:42:00,
2013-05-02 03:52:00,40.0,36.0,30.24,North,0,16.0,22.0,85,0.03,,,0.08,,2013-05-02 08:52:00,
2013-05-02 04:02:00,40.0,36.0,30.24,NNW,329,8.0,28.0,85,0.04,,,0.09,,2013-05-02 09:02:00,
2013-05-02 04:11:00,40.0,36.0,30.26,NW,323,17.0,17.0,85,0.04,,,0.09,,2013-05-02 09:11:00,
2013-05-02 04:21:00,40.0,36.0,30.26,NW,323,17.0,17.0,85,0.04,,,0.09,,2013-05-02 09:21:00,
2013-05-02 04:32:00,39.0,35.0,30.24,North,3,10.0,15.0,86,0.04,,,0.10,,2013-05-02 09:32:00,
2013-05-02 04:42:00,39.0,35.0,30.24,North,3,10.0,15.0,86,0.04,,,0.10,,2013-05-02 09:42:00,
2013-05-02 04:52:00,39.0,35.0,30.24,NNE,23,14.0,21.0,87,0.06,,,0.14,,2013-05-02 09:52:00,
2013-05-02 05:02:00,39.0,35.0,30.27,North,1,7.0,18.0,87,0.09,,,0.18,,2013-05-02 10:02:00,
2013-05-02 05:12:00,39.0,35.0,30.27,North,1,7.0,18.0,87,0.09,,,0.18,,2013-05-02 10:12:00,
2013-05-02 05:22:00,39.0,35.0,30.26,North,7,9.0,18.0,87,0.11,,,0.20,,2013-05-02 10:22:00,
2013-05-02 05:32:00,39.0,36.0,30.27,North,11,10.0,19.0,88,0.19,,,0.29,,2013-05-02 10:32:00,
2013-05-02 05:42:00,39.0,36.0,30.27,North,11,10.0,19.0,88,0.19,,,0.29,,2013-05-02 10:42:00,
2013-05-02 05:53:00,39.0,36.0,30.27,NNE,19,9.0,17.0,88,0.19,,,0.33,,2013-05-02 10:53:00,
2013-05-02 06:02:00,39.0,36.0,30.29,North,1,4.0,14.0,88,0.18,,,0.36,,2013-05-02 11:02:00,
2013-05-02 06:12:00,39.0,36.0,30.29,North,1,4.0,14.0,88,0.18,,,0.36,,2013-05-02 11:12:00,
2013-05-02 06:22:00,39.0,36.0,30.29,North,9,8.0,18.0,88,0.17,,,0.37,,2013-05-02 11:22:00,
2013-05-02 06:32:00,39.0,36.0,30.27,North,11,14.0,20.0,88,0.08,,,0.37,,2013-05-02 11:32:00,
2013-05-02 06:42:00,39.0,36.0,30.27,North,11,14.0,20.0,88,0.08,,,0.37,,2013-05-02 11:42:00,
2013-05-02 06:52:00,39.0,36.0,30.27,North,1,12.0,22.0,88,0.04,,,0.37,,2013-05-02 11:52:00,
2013-05-02 07:01:00,39.0,35.0,30.28,North,0,9.0,18.0,87,0.01,,,0.37,,2013-05-02 12:01:00,
2013-05-02 07:11:00,39.0,35.0,30.28,North,0,9.0,18.0,87,0.01,,,0.37,,2013-05-02 12:11:00,
2013-05-02 07:21:00,39.0,35.0,30.31,NW,314,9.0,13.0,87,0.00,,,0.37,,2013-05-02 12:21:00,
2013-05-02 07:32:00,39.0,35.0,30.29,North,1,11.0,17.0,87,0.01,,,0.38,,2013-05-02 12:32:00,
2013-05-02 07:42:00,39.0,35.0,30.29,North,1,11.0,17.0,87,0.01,,,0.38,,2013-05-02 12:42:00,
2013-05-02 07:52:00,39.0,35.0,30.31,North,1,3.0,17.0,86,0.01,,,0.38,,2013-05-02 12:52:00,
2013-05-02 08:01:00,39.0,35.0,30.35,NNW,348,4.0,14.0,86,0.01,,,0.38,,2013-05-02 13:01:00,
2013-05-02 08:11:00,39.0,35.0,30.35,NNW,348,4.0,14.0,86,0.01,,,0.38,,2013-05-02 13:11:00,
2013-05-02 08:21:00,38.0,34.0,30.33,NNW,345,8.0,17.0,86,0.01,,,0.38,,2013-05-02 13:21:00,
2013-05-02 08:31:00,38.0,34.0,30.33,North,9,14.0,20.0,86,0.00,,,0.38,,2013-05-02 13:31:00,
2013-05-02 08:42:00,38.0,34.0,30.33,North,9,14.0,20.0,86,0.00,,,0.38,,2013-05-02 13:42:00,
2013-05-02 08:52:00,38.0,34.0,30.34,North,8,11.0,24.0,85,0.00,,,0.38,,2013-05-02 13:52:00,
2013-05-02 09:02:00,38.0,34.0,30.34,North,4,17.0,25.0,85,0.00,,,0.38,,2013-05-02 14:02:00,
2013-05-02 09:11:00,38.0,34.0,30.34,North,4,17.0,25.0,85,0.00,,,0.38,,2013-05-02 14:11:00,
2013-05-02 09:22:00,38.0,34.0,30.34,North,359,8.0,25.0,84,0.01,,,0.39,,2013-05-02 14:22:00,
2013-05-02 09:32:00,38.0,34.0,30.35,NNW,330,10.0,27.0,84,0.01,,,0.39,,2013-05-02 14:32:00,
2013-05-02 09:42:00,38.0,34.0,30.35,NNW,330,10.0,27.0,84,0.01,,,0.39,,2013-05-02 14:42:00,
2013-05-02 09:52:00,38.0,33.0,30.34,North,5,21.0,26.0,83,0.01,,,0.39,,2013-05-02 14:52:00,
2013-05-02 10:02:00,38.0,33.0,30.36,North,2,8.0,24.0,83,0.01,,,0.39,,2013-05-02 15:02:00,
2013-05-02 10:12:00,38.0,33.0,30.36,North,2,8.0,24.0,83,0.01,,,0.39,,2013-05-02 15:12:00,
2013-05-02 10:22:00,38.0,34.0,30.37,North,5,8.0,15.0,84,0.02,,,0.41,,2013-05-02 15:22:00,
2013-05-02 10:33:00,38.0,34.0,30.37,North,356,9.0,20.0,84,0.03,,,0.42,,2013-05-02 15:33:00,
2013-05-02 10:43:00,38.0,34.0,30.37,North,356,9.0,20.0,84,0.03,,,0.42,,2013-05-02 15:43:00,
2013-05-02 11:02:00,37.0,33.0,30.37,NNE,20,10.0,25.0,85,0.04,,,0.43,,2013-05-02 16:02:00,
2013-05-02 11:13:00,37.0,33.0,30.37,NNE,20,10.0,25.0,85,0.04,,,0.43,,2013-05-02 16:13:00,
2013-05-02 11:22:00,38.0,34.0,30.38,NNW,331,6.0,14.0,85,0.06,,,0.47,,2013-05-02 16:22:00,
2013-05-02 11:32:00,38.0,34.0,30.37,NNE,19,7.0,23.0,85,0.06,,,0.48,,2013-05-02 16:32:00,
2013-05-02 11:43:00,38.0,34.0,30.36,North,9,13.0,30.0,84,0.06,,,0.49,,2013-05-02 16:43:00,
2013-05-02 11:52:00,38.0,34.0,30.36,North,9,13.0,30.0,84,0.06,,,0.49,,2013-05-02 16:52:00,
2013-05-02 12:02:00,38.0,34.0,30.36,North,9,16.0,21.0,85,0.04,,,0.49,,2013-05-02 17:02:00,
2013-05-02 12:12:00,37.0,33.0,30.37,North,359,7.0,22.0,84,0.04,,,0.50,,2013-05-02 17:12:00,
2013-05-02 12:22:00,37.0,33.0,30.37,North,359,7.0,22.0,84,0.04,,,0.50,,2013-05-02 17:22:00,
2013-05-02 12:31:00,37.0,33.0,30.36,NNE,19,11.0,28.0,84,0.05,,,0.53,,2013-05-02 17:31:00,
2013-05-02 12:42:00,37.0,33.0,30.36,NNE,19,11.0,28.0,84,0.05,,,0.53,,2013-05-02 17:42:00,
2013-05-02 12:52:00,37.0,33.0,30.37,North,3,13.0,14.0,84,0.05,,,0.54,,2013-05-02 17:52:00,
2013-05-02 13:01:00,36.0,32.0,30.37,North,351,3.0,19.0,85,0.06,,,0.55,,2013-05-02 18:01:00,
2013-05-02 13:11:00,36.0,32.0,30.37,North,351,3.0,19.0,85,0.06,,,0.55,,2013-05-02 18:11:00,
2013-05-02 13:21:00,36.0,32.0,30.36,North,355,11.0,18.0,86,0.07,,,0.57,,2013-05-02 18:21:00,
2013-05-02 13:31:00,36.0,32.0,30.37,North,4,11.0,23.0,86,0.06,,,0.59,,2013-05-02 18:31:00,
2013-05-02 13:41:00,36.0,32.0,30.37,North,4,11.0,23.0,86,0.06,,,0.59,,2013-05-02 18:41:00,
2013-05-02 13:52:00,35.0,31.0,30.36,North,354,12.0,23.0,86,0.05,,,0.59,,2013-05-02 18:52:00,
2013-05-02 14:01:00,35.0,31.0,30.36,NW,320,4.0,20.0,86,0.06,,,0.61,,2013-05-02 19:01:00,
2013-05-02 14:11:00,35.0,31.0,30.36,NW,320,4.0,20.0,86,0.06,,,0.61,,2013-05-02 19:11:00,
2013-05-02 14:21:00,35.0,32.0,30.35,North,353,8.0,18.0,87,0.05,,,0.62,,2013-05-02 19:21:00,
2013-05-02 14:31:00,35.0,32.0,30.37,NW,319,3.0,14.0,87,0.03,,,0.62,,2013-05-02 19:31:00,
2013-05-02 14:42:00,35.0,32.0,30.37,NW,319,3.0,14.0,87,0.03,,,0.62,,2013-05-02 19:42:00,
2013-05-02 14:52:00,34.0,31.0,30.37,North,358,6.0,13.0,87,0.03,,,0.62,,2013-05-02 19:52:00,
2013-05-02 15:02:00,34.0,31.0,30.36,North,358,8.0,11.0,87,0.01,,,0.62,,2013-05-02 20:02:00,
2013-05-02 15:11:00,34.0,31.0,30.37,North,359,9.0,12.0,87,0.02,,,0.63,,2013-05-02 20:11:00,
2013-05-02 15:22:00,34.0,31.0,30.37,North,359,9.0,12.0,87,0.02,,,0.63,,2013-05-02 20:22:00,
2013-05-02 15:32:00,34.0,31.0,30.37,North,354,10.0,12.0,87,0.02,,,0.64,,2013-05-02 20:32:00,
2013-05-02 15:41:00,34.0,31.0,30.37,North,354,10.0,12.0,87,0.02,,,0.64,,2013-05-02 20:41:00,
2013-05-02 15:52:00,33.0,30.0,30.39,NNW,344,2.0,15.0,88,0.03,,,0.65,,2013-05-02 20:52:00,
2013-05-02 16:01:00,33.0,30.0,30.37,North,351,4.0,11.0,88,0.02,,,0.65,,2013-05-02 21:01:00,
2013-05-02 16:11:00,34.0,31.0,30.36,North,354,8.0,14.0,88,0.03,,,0.66,,2013-05-02 21:11:00,
2013-05-02 16:21:00,34.0,31.0,30.36,North,354,8.0,14.0,88,0.03,,,0.66,,2013-05-02 21:21:00,
2013-05-02 16:33:00,34.0,31.0,30.38,NW,320,9.0,14.0,88,0.02,,,0.66,,2013-05-02 21:33:00,
2013-05-02 16:42:00,34.0,31.0,30.38,NW,320,9.0,14.0,88,0.02,,,0.66,,2013-05-02 21:42:00,
2013-05-02 16:53:00,33.0,30.0,30.40,NNW,338,7.0,12.0,88,0.02,,,0.66,,2013-05-02 21:53:00,
2013-05-02 17:02:00,33.0,30.0,30.39,North,350,4.0,13.0,88,0.02,,,0.67,,2013-05-02 22:02:00,
2013-05-02 17:12:00,33.0,30.0,30.38,North,353,10.0,11.0,88,0.01,,,0.67,,2013-05-02 22:12:00,
2013-05-02 17:22:00,33.0,30.0,30.38,North,353,10.0,11.0,88,0.01,,,0.67,,2013-05-02 22:22:00,
2013-05-02 17:32:00,33.0,30.0,30.39,NNW,331,4.0,15.0,88,0.02,,,0.68,,2013-05-02 22:32:00,
2013-05-02 17:42:00,33.0,30.0,30.39,NNW,331,4.0,15.0,88,0.02,,,0.68,,2013-05-02 22:42:00,
2013-05-02 17:52:00,33.0,30.0,30.39,NNW,335,8.0,13.0,89,0.03,,,0.69,,2013-05-02 22:52:00,
2013-05-02 18:02:00,33.0,30.0,30.40,NNW,343,7.0,15.0,89,0.02,,,0.69,,2013-05-02 23:02:00,
2013-05-02 18:11:00,33.0,30.0,30.40,NNW,343,7.0,15.0,89,0.02,,,0.69,,2013-05-02 23:11:00,
2013-05-02 18:22:00,33.0,30.0,30.40,NNW,347,9.0,15.0,89,0.03,,,0.70,,2013-05-02 23:22:00,
2013-05-02 18:32:00,33.0,30.0,30.38,NE,50,6.0,17.0,89,0.03,,,0.71,,2013-05-02 23:32:00,
2013-05-02 18:42:00,33.0,30.0,30.38,NE,50,6.0,17.0,89,0.03,,,0.71,,2013-05-02 23:42:00,
2013-05-02 18:52:00,33.0,30.0,30.39,NW,324,10.0,15.0,89,0.02,,,0.71,,2013-05-02 23:52:00,
2013-05-02 19:01:00,33.0,30.0,30.37,North,10,7.0,14.0,89,0.03,,,0.72,,2013-05-03 00:01:00,
2013-05-02 19:11:00,33.0,30.0,30.36,North,356,4.0,19.0,89,0.02,,,0.72,,2013-05-03 00:11:00,
2013-05-02 19:21:00,33.0,30.0,30.36,North,356,4.0,19.0,89,0.02,,,0.72,,2013-05-03 00:21:00,
2013-05-02 19:31:00,33.0,30.0,30.36,North,0,7.0,14.0,89,0.01,,,0.72,,2013-05-03 00:31:00,
2013-05-02 19:41:00,33.0,30.0,30.36,North,0,7.0,14.0,89,0.01,,,0.72,,2013-05-03 00:41:00,
2013-05-02 19:52:00,33.0,30.0,30.38,North,3,8.0,15.0,89,0.02,,,0.73,,2013-05-03 00:52:00,
2013-05-02 20:01:00,33.0,30.0,30.36,North,11,6.0,16.0,88,0.01,,,0.73,,2013-05-03 01:01:00,
2013-05-02 20:11:00,33.0,30.0,30.36,North,11,6.0,16.0,88,0.01,,,0.73,,2013-05-03 01:11:00,
2013-05-02 20:21:00,33.0,30.0,30.36,North,351,6.0,14.0,88,0.01,,,0.73,,2013-05-03 01:21:00,
2013-05-02 20:31:00,33.0,30.0,30.36,NNW,345,3.0,12.0,88,0.02,,,0.74,,2013-05-03 01:31:00,
2013-05-02 20:42:00,33.0,30.0,30.36,NNW,345,3.0,12.0,88,0.02,,,0.74,,2013-05-03 01:42:00,
2013-05-02 20:52:00,33.0,30.0,30.35,North,9,13.0,15.0,88,0.02,,,0.74,,2013-05-03 01:52:00,
2013-05-02 21:01:00,33.0,30.0,30.35,North,1,7.0,23.0,88,0.01,,,0.73,,2013-05-03 02:01:00,
2013-05-02 21:11:00,33.0,30.0,30.35,North,1,7.0,23.0,88,0.01,,,0.73,,2013-05-03 02:11:00,
2013-05-02 21:21:00,33.0,30.0,30.35,North,2,19.0,22.0,88,0.02,,,0.74,,2013-05-03 02:21:00,
2013-05-02 21:32:00,34.0,31.0,30.36,North,8,7.0,14.0,88,0.02,,,0.74,,2013-05-03 02:32:00,
2013-05-02 21:42:00,34.0,31.0,30.36,North,8,7.0,14.0,88,0.02,,,0.74,,2013-05-03 02:42:00,
2013-05-02 21:52:00,34.0,31.0,30.37,North,9,8.0,10.0,88,0.02,,,0.75,,2013-05-03 02:52:00,
2013-05-02 22:01:00,34.0,31.0,30.36,North,6,7.0,10.0,88,0.02,,,0.74,,2013-05-03 03:01:00,
2013-05-02 22:11:00,34.0,31.0,30.35,North,0,3.0,8.0,88,0.01,,,0.74,,2013-05-03 03:11:00,
2013-05-02 22:21:00,34.0,31.0,30.35,North,0,3.0,8.0,88,0.01,,,0.74,,2013-05-03 03:21:00,
2013-05-02 22:33:00,34.0,31.0,30.35,North,359,2.0,4.0,88,0.01,,,0.74,,2013-05-03 03:33:00,
2013-05-02 22:42:00,34.0,31.0,30.35,North,359,2.0,4.0,88,0.01,,,0.74,,2013-05-03 03:42:00,
2013-05-02 22:53:00,34.0,31.0,30.32,North,8,3.0,7.0,88,0.00,,,0.74,,2013-05-03 03:53:00,
2013-05-02 23:02:00,34.0,31.0,30.35,NW,317,3.0,6.0,88,0.00,,,0.72,,2013-05-03 04:02:00,
2013-05-02 23:12:00,34.0,31.0,30.34,NW,312,4.0,6.0,88,0.00,,,0.72,,2013-05-03 04:12:00,
2013-05-02 23:22:00,34.0,31.0,30.34,NW,312,4.0,6.0,88,0.00,,,0.72,,2013-05-03 04:22:00,
2013-05-02 23:32:00,34.0,31.0,30.33,North,0,0.0,4.0,88,0.01,,,0.73,,2013-05-03 04:32:00,
2013-05-02 23:42:00,34.0,31.0,30.33,North,0,0.0,4.0,88,0.01,,,0.73,,2013-05-03 04:42:00,
2013-05-02 23:53:00,34.0,31.0,30.30,NNW,337,3.0,6.0,88,0.01,,,0.73,,2013-05-03 04:53:00,